Temp
59 60 60 60 60 60 60 61 62 62 62 62 62 62 61 61 61 60 59 58 57 59
60 61 61 62 61 61 61 63 62 61 61 61 63 62 62 60 60 60 59 59 58 58
62 63 63 64 62 62 62 63 63 63 63 63 62 63 62 61 62 60 59 60 58 58
64 65 64 63 63 64 63 63 63 63 63 64 61 61 60 60 60 59 58 58 58 57
65 65 64 64 65 65 64 63 63 64 63 63 60 60 59 59 60 58 58 58 56 56
65 65 63 63 62 65 65 64 64 63 63 62 60 58 58 59 59 60 57 56 55 56
65 65 65 65 65 63 62 62 63 63 63 62 60 59 58 58 58 58 57 57 57 56
65 66 66 65 65 63 64 63 64 63 63 62 60 59 53 54 56 57 58 58 59 57
64 67 65 66 65 64 62 61 63 62 63 60 62 50 51 52 53 57 58 57 58 57
66 66 65 65 65 63 63 61 62 62 62 59 58 49 49 51 54 56 56 57 57 58
65 65 66 65 63 62 62 61 60 60 62 61 58 50 49 50 57 57 58 57 58 57
66 65 65 62 62 62 62 61 60 61 61 60 60 49 50 51 56 58 57 58 59 58
66 65 63 63 63 63 62 62 62 62 61 60 59 50 48 51 58 56 57 56 56 52
65 65 64 63 63 62 61 61 60 60 60 61 59 59 49 49 55 57 56 57 58 58
MSLP
1021.16 1021.24 1021.18 1020.99 1020.84 1020.63 1020.46 1020.26 1019.94 1019.52 1019.16 1019.01 1019.05 1018.85 1018.66 1018.72 1018.59 1018.38 1018.26 1018.13 1017.85 1017.44
1021.20 1021.21 1021.04 1020.80 1020.61 1020.42 1020.23 1019.87 1019.65 1019.50 1019.48 1019.29 1019.23 1019.09 1018.78 1018.94 1018.89 1018.72 1018.48 1018.30 1018.15 1017.88
1020.93 1020.90 1020.74 1020.58 1020.55 1020.54 1020.45 1020.22 1019.96 1019.83 1019.57 1019.31 1019.31 1019.21 1019.12 1018.96 1018.81 1018.74 1018.63 1018.45 1018.29 1017.98
1020.61 1020.57 1020.67 1020.58 1020.58 1020.44 1020.32 1020.32 1020.23 1020.07 1019.81 1019.53 1019.58 1019.53 1019.35 1019.07 1018.96 1018.91 1018.78 1018.64 1018.45 1018.41
1020.33 1020.50 1020.49 1020.50 1020.42 1020.21 1020.24 1020.25 1020.30 1020.14 1019.95 1019.84 1020.02 1019.99 1019.84 1019.58 1019.30 1019.10 1018.91 1018.81 1018.85 1018.74
1020.22 1020.33 1020.41 1020.43 1020.35 1020.22 1020.12 1020.20 1020.29 1020.24 1020.17 1020.13 1020.43 1020.59 1020.36 1020.09 1019.70 1019.38 1019.34 1019.22 1019.08 1018.97
1020.11 1020.22 1020.23 1020.24 1020.21 1020.22 1020.28 1020.21 1020.30 1020.33 1020.30 1020.37 1020.75 1021.05 1020.92 1020.56 1020.11 1019.58 1019.44 1019.32 1019.15 1019.15
1020.12 1019.97 1020.08 1020.32 1020.19 1020.27 1020.28 1020.29 1020.33 1020.42 1020.45 1020.55 1020.98 1021.46 1021.45 1021.07 1020.41 1019.91 1019.43 1019.26 1019.05 1018.89
1019.99 1019.74 1020.00 1020.15 1020.21 1020.21 1020.18 1020.36 1020.47 1020.57 1020.55 1020.74 1021.34 1021.61 1021.43 1021.08 1020.52 1019.84 1019.32 1018.96 1018.78 1018.70
1019.69 1019.75 1019.88 1020.06 1020.15 1020.32 1020.30 1020.37 1020.59 1020.68 1020.69 1020.85 1021.35 1021.29 1021.11 1020.65 1020.24 1019.71 1019.15 1018.71 1018.64 1018.51
1019.63 1019.70 1019.79 1019.88 1020.20 1020.44 1020.45 1020.50 1020.62 1020.65 1020.63 1020.67 1020.89 1020.77 1020.55 1020.21 1019.74 1019.29 1018.89 1018.61 1018.27 1018.13
1019.58 1019.57 1019.74 1020.02 1020.38 1020.54 1020.49 1020.42 1020.41 1020.21 1020.18 1020.14 1020.16 1020.27 1020.24 1020.12 1019.69 1019.00 1018.73 1018.37 1017.91 1017.83
1019.58 1019.69 1019.94 1020.14 1020.35 1020.44 1020.35 1020.21 1019.94 1019.74 1019.66 1019.65 1019.69 1019.75 1019.80 1019.78 1019.42 1018.97 1018.57 1018.17 1017.95 1018.35
1019.65 1019.78 1019.88 1020.04 1020.13 1020.20 1020.05 1019.79 1019.68 1019.40 1019.07 1018.95 1019.01 1018.96 1019.18 1019.32 1019.27 1018.77 1018.50 1018.09 1017.72 1017.64
Wind_Speed
8 4 3 4 2 2 2 2 3 4 5 6 7 7 5 4 5 5 4 6 7 6
5 4 3 3 3 0 2 1 2 3 6 5 5 6 5 4 4 5 5 5 5 5
5 4 3 0 5 5 5 6 6 7 6 6 6 4 5 3 2 3 3 3 6 4
1 4 4 4 4 3 4 5 5 5 5 5 5 5 6 6 6 6 5 5 6 9
3 4 4 3 2 3 3 5 5 5 5 7 8 8 8 8 7 6 6 7 8 5
4 4 4 4 5 4 4 5 4 5 5 6 8 8 9 8 8 6 7 6 6 6
3 2 2 2 1 1 5 3 4 4 5 6 8 7 8 9 10 5 5 5 5 5
1 3 3 3 3 1 1 4 5 4 4 5 6 5 6 7 9 7 3 2 4 5
6 2 3 0 2 3 3 3 4 3 4 5 5 5 7 5 7 8 5 2 2 5
4 1 1 3 2 3 2 3 3 3 4 4 5 2 7 10 6 7 6 6 3 4
3 3 2 1 4 3 4 3 2 3 1 1 4 4 4 9 6 8 5 7 3 2
3 2 3 5 3 1 2 1 4 4 4 5 4 9 5 4 7 5 5 8 6 2
3 3 4 3 2 0 3 3 4 3 6 6 6 9 10 6 4 6 4 7 2 2
4 2 3 3 3 2 5 4 5 7 7 7 9 10 12 10 5 5 3 6 5 5
Wind_Direction
64 65 45 56 17 42 27 10 330 307 300 54 39 359 60 18 18 11 50 40 359 351
88 69 42 357 287 207 349 220 352 355 21 58 58 9 17 71 30 17 360 30 1 348
135 148 192 27 49 61 20 5 7 5 360 24 58 29 351 351 14 23 2 360 0 353
127 75 49 73 62 54 70 28 12 8 350 360 65 354 345 343 27 10 359 5 348 17
125 126 117 88 73 61 55 71 17 4 348 38 33 19 6 3 352 14 355 14 40 21
140 106 66 358 20 357 12 86 48 350 19 50 48 20 360 353 340 4 33 30 14 6
113 114 65 19 158 297 19 23 56 359 38 65 67 23 355 341 323 53 23 10 357 48
249 175 102 34 342 52 263 359 60 12 56 66 68 21 350 329 331 323 358 29 349 29
263 186 90 318 328 358 57 72 52 17 360 78 64 345 325 327 315 317 322 326 322 325
225 271 136 291 28 35 353 35 45 3 339 94 111 334 333 332 316 296 301 322 321 344
204 237 180 212 64 14 8 30 53 282 285 73 175 219 309 318 312 306 349 324 349 324
188 200 105 79 80 21 275 235 246 217 228 229 225 219 229 306 309 326 347 321 291 316
183 131 110 120 105 263 297 229 277 239 242 235 240 205 218 229 278 304 335 316 181 281
170 174 146 170 208 214 254 262 263 266 260 238 222 241 206 212 248 275 321 320 320 309